sat.trackr.live / text

‹ back to catalog

KUIPER-00293

NORAD 68593 · 2026-072W

PAYLOAD ACTIVE UNKNOWN

§ Identity

Operator
Country
US
Launch date
2026-04-04
Launch site
AFETR
Launch vehicle
Mass (kg)
RCS (m²)

External: N2YO · Heavens-Above · Gunter

§ Orbital elements

Epoch: 2026-05-25T04:00:03.998880Z

Period
95.96 min
Inclination
51.8885°
Eccentricity
0.0013597
Mean motion
15.00576340 rev/d
Perigee alt
555.7 km
Apogee alt
574.6 km
Semi-major
6,943.3 km
B*
-1.5305e-1
RAAN
290.8207°
Arg perigee
316.0807°
Mean anomaly
325.0928°
Rev number
130

§ Raw data

KUIPER-002931 68593U 26072W   26145.16671295 -.01783098  00000+0 -15305+0 0  99932 68593  51.8885 290.8207 0013597 316.0807 325.0928 15.00576340  1300

JSON: /api/v1/satellites/68593 · /tle

For live sub-satellite position, see the globe view (requires WebGL).

§ Visibility from observer

Set your observer location to see the next 7 days of passes ≥ 10°. The values pass through the URL so the page stays shareable.

No JS? Fill the form by hand. The geolocation button needs JavaScript.